Hourly Data Report for September 25, 2017

All times are specified in Local Standard Time (LST). Add 1 hour to adjust for Daylight Saving Time where and when it is observed.

CAPE DORSET A
NUNAVUT

64°13'49.000" N
76°31'30.000" W
48.20 m
2400637
71366
YTE

Download Data

Hourly Data (September 2017)
Hourly Data Report for September 25, 2017
Temp Definition
°C
Dew Point Temp Definition
°C
Rel Hum Definition
%
Wind Dir Definition
10's deg

Wind Spd Definition
km/h
Visibility Definition
km
Stn Press Definition
kPa
Hmdx Definition


Wind Chill Definition


Weather Definition


TIME
00:00 Legend Double Dagger -1.2 -4.0 81 30 22 16.1 100.90   -7 LegendNANA
01:00 Legend Double Dagger -0.9 -3.6 82 29 18 16.1 100.88   -6 LegendNANA
02:00 Legend Double Dagger -0.7 -3.2 83 28 22 16.1 100.89   -6 LegendNANA
03:00 Legend Double Dagger -0.9 -2.8 87 26 18 16.1 100.85   -6 LegendNANA
04:00 Legend Double Dagger -0.8 -2.2 90 27 22 16.1 100.86   -7 LegendNANA
05:00 Legend Double Dagger -0.5 -3.4 81 27 21 16.1 100.87   -6 LegendNANA
06:00 Legend Double Dagger -0.7 -2.6 87 28 22 9.7 100.89   -6 Fog
07:00 Legend Double Dagger -0.7 -3.2 84 27 24 16.1 100.87   -7 LegendNANA
08:00 Legend Double Dagger -0.4 -2.7 84 28 24 16.1 100.87   -6 LegendNANA
09:00 Legend Double Dagger 0.0 -3.7 76 28 24 16.1 100.84   -6 LegendNANA
10:00 Legend Double Dagger 0.0 -3.1 80 30 21 16.1 100.85   -5 LegendNANA
11:00 Legend Double Dagger 0.0 -2.3 84 27 22 16.1 100.83   -6 LegendNANA
12:00 Legend Double Dagger 0.3 -3.6 75 30 18 16.1 100.85     LegendNANA
13:00 Legend Double Dagger 0.2 -3.8 74 31 17 16.1 100.86     LegendNANA
14:00 Legend Double Dagger 0.1 -3.6 76 31 17 16.1 100.89     LegendNANA
15:00 Legend Double Dagger 0.1 -3.9 75 29 18 16.1 100.89     LegendNANA
16:00 Legend Double Dagger -0.4 -3.0 83 29 17 16.1 100.92   -5 LegendNANA
17:00 Legend Double Dagger -0.3 -4.2 75 29 24 16.1 100.93   -6 LegendNANA
18:00 Legend Double Dagger -0.3 -3.5 79 30 21 16.1 100.95   -6 LegendNANA
19:00 Legend Double Dagger -0.6 -3.8 79 31 18 16.1 100.97   -6 LegendNANA
20:00 Legend Double Dagger -0.8 -4.3 77 30 17 16.1 100.99   -6 LegendNANA
21:00 Legend Double Dagger -0.9 -4.1 79 30 15 16.1 101.00   -6 LegendNANA
22:00 Legend Double Dagger -1.0 -3.9 81 29 21 16.1 100.96   -7 LegendNANA
23:00 Legend Double Dagger -0.8 -4.5 76 28 18 16.1 100.98   -6 LegendNANA

Notes on Data Quality.

Legend

  • E = Estimated
  • M = Missing
  • NA = Not Available
  • ‡ = Partner data that is not subject to review by the National Climate Archives
Date modified: